| time (UTC) | temp C | wind direction | speed KPH | gust KPH | rain 1hr cm | rain 24hr cm | rain mn cm | humidity % | barometer mb |
| 20260504110507 | 17 | 287 | 12.9 | 17.7 | 0.00 | 0.00 | 0.00 | 30 | 1018.8 |
| 20260504100507 | 16 | 350 | 24.1 | 33.8 | 0.00 | 0.00 | 0.00 | 32 | 1019.0 |
| 20260504081506 | 15 | 22 | 17.7 | 24.1 | 0.00 | 0.00 | 0.00 | 38 | 1019.1 |
| 20260504050009 | 10 | 245 | 3.2 | 4.8 | 0.00 | 0.10 | 0.00 | 66 | 1018.3 |
| 20260504045506 | 10 | 254 | 1.6 | 4.8 | 0.00 | 0.10 | 0.00 | 66 | 1018.3 |
| 20260504044007 | 10 | 0 | 0.0 | 0.0 | 0.00 | 0.15 | 0.00 | 68 | 1018.0 |
| 20260504043506 | 10 | 0 | 0.0 | 0.0 | 0.00 | 0.18 | 0.00 | 69 | 1018.1 |
| 20260504042507 | 10 | 245 | 0.0 | 3.2 | 0.00 | 0.28 | 0.00 | 69 | 1018.0 |
| 20260504042007 | 9 | 265 | 1.6 | 3.2 | 0.00 | 0.30 | 0.00 | 69 | 1018.1 |
| 20260504041506 | 9 | 255 | 3.2 | 3.2 | 0.00 | 0.33 | 0.00 | 69 | 1018.0 |
| 20260504041006 | 9 | 32 | 3.2 | 6.4 | 0.00 | 0.33 | 0.00 | 69 | 1017.9 |
| 20260504040506 | 9 | 3 | 4.8 | 6.4 | 0.00 | 0.33 | 0.00 | 69 | 1017.9 |
| 20260504040007 | 9 | 17 | 4.8 | 6.4 | 0.00 | 0.38 | 0.00 | 69 | 1017.7 |
| 20260504035506 | 8 | 63 | 3.2 | 4.8 | 0.00 | 0.38 | 0.00 | 69 | 1017.8 |
| 20260504034507 | 8 | 67 | 1.6 | 4.8 | 0.00 | 0.43 | 0.00 | 68 | 1017.8 |
| 20260504034006 | 8 | 17 | 1.6 | 3.2 | 0.00 | 0.43 | 0.00 | 68 | 1017.6 |
| 20260504033506 | 9 | 16 | 3.2 | 4.8 | 0.00 | 0.43 | 0.00 | 68 | 1017.8 |
| 20260504033006 | 9 | 19 | 4.8 | 6.4 | 0.00 | 0.43 | 0.00 | 67 | 1017.8 |
| 20260504032506 | 9 | 25 | 4.8 | 6.4 | 0.00 | 0.43 | 0.00 | 67 | 1017.6 |
| 20260504032009 | 9 | 20 | 4.8 | 6.4 | 0.00 | 0.43 | 0.00 | 67 | 1017.7 |
| 20260504031506 | 8 | 16 | 4.8 | 6.4 | 0.00 | 0.43 | 0.00 | 68 | 1017.7 |
| 20260504030507 | 8 | 44 | 4.8 | 6.4 | 0.00 | 0.43 | 0.00 | 68 | 1017.7 |
| 20260504030009 | 8 | 44 | 3.2 | 6.4 | 0.00 | 0.43 | 0.00 | 68 | 1017.6 |
| 20260504025009 | 8 | 32 | 4.8 | 6.4 | 0.00 | 0.43 | 0.00 | 68 | 1017.5 |
| 20260504024507 | 8 | 25 | 4.8 | 6.4 | 0.00 | 0.43 | 0.00 | 68 | 1017.7 |
| 20260504023007 | 8 | 301 | 1.6 | 3.2 | 0.00 | 0.43 | 0.00 | 68 | 1017.7 |
| 20260504022506 | 8 | 286 | 3.2 | 4.8 | 0.00 | 0.43 | 0.00 | 68 | 1017.9 |
| 20260504022006 | 8 | 289 | 3.2 | 4.8 | 0.00 | 0.46 | 0.00 | 67 | 1017.8 |
| 20260504021506 | 8 | 275 | 1.6 | 3.2 | 0.00 | 0.46 | 0.00 | 67 | 1017.9 |
| 20260504021006 | 8 | 284 | 1.6 | 3.2 | 0.00 | 0.46 | 0.00 | 67 | 1017.8 |
| 20260504020006 | 8 | 295 | 3.2 | 6.4 | 0.00 | 0.46 | 0.00 | 66 | 1017.9 |
| 20260504015506 | 8 | 300 | 3.2 | 6.4 | 0.00 | 0.46 | 0.00 | 67 | 1017.8 |
| 20260504015007 | 8 | 334 | 3.2 | 4.8 | 0.00 | 0.46 | 0.00 | 66 | 1017.9 |
| 20260504014515 | 8 | 343 | 3.2 | 6.4 | 0.00 | 0.46 | 0.00 | 66 | 1017.9 |
| 20260504014006 | 8 | 349 | 3.2 | 6.4 | 0.00 | 0.46 | 0.00 | 66 | 1017.9 |
| 20260504013506 | 8 | 357 | 3.2 | 6.4 | 0.00 | 0.46 | 0.00 | 66 | 1017.8 |
| 20260504013006 | 8 | 359 | 3.2 | 6.4 | 0.00 | 0.46 | 0.00 | 65 | 1017.7 |
| 20260504012506 | 9 | 15 | 1.6 | 6.4 | 0.00 | 0.46 | 0.00 | 65 | 1017.7 |
| 20260504012006 | 9 | 52 | 1.6 | 4.8 | 0.00 | 0.46 | 0.00 | 64 | 1017.7 |
| 20260504011506 | 9 | 85 | 3.2 | 6.4 | 0.00 | 0.46 | 0.00 | 63 | 1017.9 |
| 20260504011006 | 9 | 117 | 4.8 | 6.4 | 0.00 | 0.46 | 0.00 | 63 | 1017.8 |
| 20260504010507 | 9 | 47 | 4.8 | 6.4 | 0.00 | 0.46 | 0.00 | 63 | 1018.0 |
| 20260504010006 | 9 | 3 | 3.2 | 6.4 | 0.00 | 0.46 | 0.00 | 63 | 1017.8 |
| 20260504005506 | 9 | 3 | 1.6 | 6.4 | 0.00 | 0.46 | 0.00 | 62 | 1017.7 |
| 20260504005007 | 9 | 153 | 1.6 | 3.2 | 0.00 | 0.46 | 0.00 | 62 | 1017.8 |
| 20260504003506 | 9 | 236 | 6.4 | 9.7 | 0.00 | 0.46 | 0.00 | 62 | 1017.8 |
| 20260504003006 | 9 | 196 | 4.8 | 9.7 | 0.00 | 0.46 | 0.00 | 63 | 1017.8 |
| 20260504002007 | 9 | 7 | 4.8 | 9.7 | 0.00 | 0.46 | 0.00 | 62 | 1017.8 |
| 20260504001006 | 9 | 330 | 3.2 | 3.2 | 0.00 | 0.46 | 0.00 | 62 | 1017.7 |
| 20260504000508 | 9 | 307 | 4.8 | 9.7 | 0.00 | 0.46 | 0.00 | 62 | 1017.7 |
| 20260504000007 | 9 | 283 | 6.4 | 9.7 | 0.00 | 0.46 | 0.00 | 62 | 1017.7 |
| 20260503235506 | 9 | 259 | 4.8 | 6.4 | 0.00 | 0.46 | 0.00 | 62 | 1017.8 |
| 20260503235006 | 9 | 238 | 3.2 | 4.8 | 0.00 | 0.46 | 0.00 | 63 | 1017.8 |
| 20260503234506 | 9 | 196 | 3.2 | 4.8 | 0.00 | 0.46 | 0.00 | 63 | 1017.9 |
| 20260503234006 | 9 | 196 | 1.6 | 4.8 | 0.00 | 0.46 | 0.00 | 63 | 1017.9 |
| 20260503233506 | 9 | 237 | 1.6 | 3.2 | 0.00 | 0.46 | 0.00 | 63 | 1017.7 |
| 20260503233006 | 9 | 316 | 1.6 | 6.4 | 0.00 | 0.46 | 0.00 | 62 | 1017.8 |
| 20260503232506 | 9 | 349 | 4.8 | 8.0 | 0.00 | 0.46 | 0.00 | 62 | 1017.8 |
| 20260503232006 | 9 | 342 | 4.8 | 8.0 | 0.00 | 0.46 | 0.00 | 62 | 1017.8 |
| 20260503231506 | 10 | 346 | 6.4 | 12.9 | 0.00 | 0.46 | 0.00 | 62 | 1017.7 |
| 20260503231006 | 10 | 352 | 9.7 | 12.9 | 0.00 | 0.46 | 0.00 | 62 | 1017.7 |
| 20260503230506 | 10 | 344 | 8.0 | 12.9 | 0.00 | 0.46 | 0.00 | 62 | 1017.8 |
| 20260503230007 | 9 | 355 | 6.4 | 9.7 | 0.00 | 0.46 | 0.00 | 62 | 1017.6 |
| 20260503225506 | 9 | 358 | 6.4 | 9.7 | 0.00 | 0.46 | 0.00 | 63 | 1017.7 |
| 20260503225006 | 9 | 333 | 3.2 | 9.7 | 0.00 | 0.46 | 0.00 | 63 | 1017.9 |
| 20260503224506 | 9 | 42 | 1.6 | 3.2 | 0.00 | 0.46 | 0.00 | 64 | 1017.8 |
| 20260503224006 | 9 | 1 | 0.0 | 1.6 | 0.00 | 0.46 | 0.00 | 63 | 1017.8 |
| 20260503223506 | 9 | 318 | 1.6 | 3.2 | 0.00 | 0.48 | 0.00 | 63 | 1017.7 |
| 20260503222506 | 9 | 318 | 3.2 | 6.4 | 0.00 | 0.51 | 0.00 | 63 | 1017.8 |
| 20260503221006 | 9 | 279 | 4.8 | 6.4 | 0.00 | 0.51 | 0.00 | 62 | 1018.1 |
| 20260503220506 | 9 | 286 | 4.8 | 6.4 | 0.00 | 0.53 | 0.00 | 62 | 1018.0 |
| 20260503220031 | 9 | 286 | 4.8 | 6.4 | 0.00 | 0.53 | 0.00 | 63 | 1018.0 |
| 20260503215530 | 9 | 265 | 3.2 | 4.8 | 0.00 | 0.53 | 0.00 | 63 | 1018.1 |
| 20260503214530 | 9 | 284 | 3.2 | 6.4 | 0.00 | 0.53 | 0.00 | 63 | 1018.1 |
| 20260503213030 | 9 | 276 | 3.2 | 6.4 | 0.00 | 0.53 | 0.00 | 63 | 1018.0 |
| 20260503212531 | 9 | 299 | 3.2 | 4.8 | 0.00 | 0.53 | 0.00 | 63 | 1018.0 |
| 20260503211531 | 9 | 63 | 1.6 | 3.2 | 0.00 | 0.53 | 0.00 | 63 | 1018.0 |
| 20260503211034 | 9 | 68 | 1.6 | 3.2 | 0.00 | 0.53 | 0.00 | 62 | 1018.0 |
| 20260503210036 | 10 | 156 | 0.0 | 1.6 | 0.00 | 0.53 | 0.00 | 61 | 1018.1 |
| 20260503205031 | 10 | 204 | 1.6 | 3.2 | 0.00 | 0.53 | 0.53 | 62 | 1018.0 |
| 20260503204531 | 10 | 226 | 1.6 | 3.2 | 0.00 | 0.53 | 0.53 | 60 | 1018.1 |
| 20260503203530 | 10 | 263 | 3.2 | 4.8 | 0.00 | 0.53 | 0.53 | 60 | 1018.1 |
| 20260503203031 | 10 | 267 | 1.6 | 4.8 | 0.00 | 0.53 | 0.53 | 59 | 1018.1 |
| 20260503202531 | 10 | 239 | 1.6 | 3.2 | 0.00 | 0.53 | 0.53 | 59 | 1018.1 |
| 20260503202031 | 10 | 242 | 3.2 | 6.4 | 0.00 | 0.53 | 0.53 | 58 | 1018.0 |
| 20260503201530 | 10 | 246 | 3.2 | 6.4 | 0.00 | 0.53 | 0.53 | 58 | 1018.0 |
| 20260503201031 | 10 | 252 | 4.8 | 6.4 | 0.00 | 0.53 | 0.53 | 58 | 1018.2 |
| 20260503200031 | 10 | 268 | 3.2 | 8.0 | 0.00 | 0.53 | 0.53 | 58 | 1018.1 |
| 20260503195531 | 10 | 293 | 4.8 | 11.3 | 0.00 | 0.53 | 0.53 | 58 | 1018.1 |
| 20260503194532 | 10 | 278 | 6.4 | 19.3 | 0.00 | 0.53 | 0.53 | 58 | 1018.0 |
| 20260503193031 | 10 | 305 | 9.7 | 12.9 | 0.00 | 0.53 | 0.53 | 57 | 1017.9 |
| 20260503192530 | 10 | 325 | 6.4 | 12.9 | 0.00 | 0.53 | 0.53 | 57 | 1017.9 |
| 20260503192030 | 10 | 317 | 8.0 | 16.1 | 0.00 | 0.53 | 0.53 | 57 | 1017.9 |
| 20260503191031 | 10 | 325 | 6.4 | 12.9 | 0.00 | 0.53 | 0.53 | 56 | 1018.0 |
| 20260503190531 | 10 | 318 | 6.4 | 12.9 | 0.00 | 0.53 | 0.53 | 56 | 1017.9 |
| 20260503190031 | 10 | 327 | 6.4 | 11.3 | 0.00 | 0.53 | 0.53 | 56 | 1018.0 |
| 20260503185532 | 10 | 323 | 9.7 | 16.1 | 0.00 | 0.53 | 0.53 | 56 | 1017.9 |
| 20260503185034 | 10 | 330 | 12.9 | 16.1 | 0.00 | 0.53 | 0.53 | 56 | 1017.7 |
| 20260503184530 | 10 | 343 | 12.9 | 16.1 | 0.00 | 0.53 | 0.53 | 56 | 1017.7 |
| 20260503182531 | 10 | 329 | 9.7 | 17.7 | 0.00 | 0.53 | 0.53 | 58 | 1017.5 |
| 20260503182031 | 10 | 324 | 11.3 | 17.7 | 0.00 | 0.53 | 0.53 | 58 | 1017.2 |
| 20260503181531 | 10 | 320 | 11.3 | 16.1 | 0.00 | 0.53 | 0.53 | 60 | 1017.2 |
| 20260503181031 | 10 | 348 | 11.3 | 16.1 | 0.00 | 0.53 | 0.53 | 59 | 1017.1 |
| 20260503180031 | 10 | 350 | 14.5 | 20.9 | 0.00 | 0.53 | 0.53 | 59 | 1017.0 |
| 20260503175530 | 10 | 347 | 16.1 | 20.9 | 0.00 | 0.53 | 0.53 | 60 | 1017.0 |
| 20260503175030 | 10 | 347 | 16.1 | 17.7 | 0.00 | 0.53 | 0.53 | 60 | 1017.0 |
| 20260503174530 | 10 | 333 | 14.5 | 17.7 | 0.00 | 0.53 | 0.53 | 60 | 1017.1 |
| 20260503173030 | 10 | 346 | 17.7 | 27.4 | 0.00 | 0.53 | 0.53 | 60 | 1016.7 |
| 20260503172530 | 10 | 345 | 14.5 | 20.9 | 0.00 | 0.53 | 0.53 | 60 | 1016.7 |
| 20260503172031 | 10 | 343 | 14.5 | 20.9 | 0.00 | 0.53 | 0.53 | 59 | 1016.7 |
| 20260503171531 | 11 | 346 | 16.1 | 20.9 | 0.00 | 0.53 | 0.53 | 58 | 1016.6 |
| 20260503171040 | 11 | 347 | 16.1 | 24.1 | 0.00 | 0.53 | 0.53 | 58 | 1016.6 |
| 20260503170531 | 11 | 341 | 17.7 | 27.4 | 0.00 | 0.53 | 0.53 | 58 | 1016.6 |
| 20260503150530 | 12 | 323 | 27.4 | 43.5 | 0.00 | 0.53 | 0.53 | 46 | 1015.8 |
| 20260503131030 | 12 | 355 | 25.7 | 33.8 | 0.00 | 0.53 | 0.53 | 52 | 1015.8 |
| 20260503130530 | 12 | 336 | 29.0 | 43.5 | 0.00 | 0.53 | 0.53 | 51 | 1015.7 |